Terminal Aerodrome Forecast
Issued by NWS Green Bay, WI

Home | Current Version | Previous Version | Graphics & Text | Print | Product List | Glossary On
Versions: 1 2 3 4 5 6 7 8 9 10 11 12 13 14 15 16 17 18 19 20 21 22 23 24 25 26 27 28 29 30 31 32 33 34 35 36 37 38 39 40 41 42 43 44 45 46 47 48 49 50
000
FTUS43 KGRB 202205 AAD
TAFGRB
TAF AMD
KGRB 202205Z 2022/2118 16012KT P6SM SCT050 BKN100
      TEMPO 2023/2102 3SM -TSRA BKN025CB
     FM210500 35005KT 4SM BR BKN015 BKN025
     FM210900 04007KT 3SM BR BKN008 BKN015
     FM211500 07007KT P6SM BKN015 BKN025=

USA.gov is the U.S. government's official web portal to all federal, state and local government web resources and services.